Location: Ceske Budejovice
(48.9830°N, 14.4670°E)
Time: 07:35:04
(UTC+02:00)

ISS - Pass Details

Date: 06 July 2022
Orbit: 412 x 420 km, 51.6° (Epoch: 18 August)

Event Time Altitude Azimuth Distance (km) Brightness Sun altitude
Rises 04:03:07 0° 275° (W) 2,361 -0.3 -8.3°
Reaches altitude 10° 04:05:15 10° 280° (W) 1,500 -1.2 -8.0°
Maximum altitude 04:08:33 52° 358° (N) 533 -2.9 -7.7°
Drops below altitude 10° 04:11:52 10° 76° (ENE) 1,506 0.0 -7.3°
Sets 04:14:00 0° 82° (E) 2,372 1.0 -7.1°
